Lapse_Rate
4.1 5.1 6.1 6.5 6.3 5.8 5.7 5.5 5.1 6.5 5.8 5.4 5.2 4.9 5.8 6.7 7.7 7.7 8.1 8.5 9.4 9.0 9.4 9.2 9.3 9.1 9.1 8.8 8.7 8.5 8.8 8.7 9.2 8.7 8.7 8.6 8.6 8.7 8.9 8.4 8.6 8.3 8.1 8.2
2.7 2.9 4.6 5.7 5.5 5.3 5.4 5.3 5.3 6.1 6.0 5.1 4.7 5.3 5.9 6.6 7.2 7.8 8.1 8.2 8.4 8.7 8.6 9.2 9.0 9.5 8.7 8.3 8.4 8.5 8.3 8.4 8.7 8.8 8.9 8.4 8.5 8.7 8.7 8.8 8.2 8.1 7.8 8.4
3.1 3.0 3.0 3.9 4.7 5.0 5.2 5.5 5.2 5.9 5.7 5.3 4.9 6.0 6.2 6.8 7.2 7.9 8.2 8.2 8.5 8.4 8.5 8.5 8.6 8.8 8.2 8.1 8.1 8.2 8.2 8.3 8.6 8.6 9.2 8.9 8.8 8.5 8.6 8.6 7.9 7.9 8.2 8.6
3.2 3.4 3.5 3.5 4.4 5.5 4.9 4.8 5.4 5.7 5.1 5.0 4.9 6.2 6.7 7.0 7.3 7.6 8.1 8.3 8.4 8.2 8.4 8.4 8.2 8.4 7.9 8.0 8.0 8.0 8.0 8.0 8.4 8.6 8.9 8.5 8.8 8.9 8.9 8.7 8.4 8.1 8.2 8.6
4.3 3.5 3.6 3.9 5.1 6.0 4.8 4.4 5.1 5.4 5.4 5.2 5.5 6.3 6.4 7.1 7.6 7.8 7.9 8.4 8.3 8.2 8.3 8.3 8.2 8.2 7.7 7.8 7.8 7.8 7.9 7.7 8.0 7.8 8.1 8.1 8.1 8.1 8.3 8.3 8.4 8.4 8.4 8.6
5.3 4.4 3.8 4.2 5.3 6.3 4.5 4.5 5.3 5.6 5.7 5.7 6.1 6.2 6.7 7.1 7.7 7.9 8.2 8.1 8.3 8.4 8.6 7.9 7.6 7.9 7.6 7.8 7.7 7.7 7.4 7.7 7.3 7.4 7.6 7.5 7.5 7.9 8.2 8.0 8.2 8.3 8.3 8.3
6.1 5.6 4.6 4.3 5.0 5.8 4.5 4.3 5.8 5.5 5.8 5.8 5.8 6.6 7.1 7.3 7.7 8.7 8.3 8.3 8.5 8.2 8.0 7.9 7.9 7.9 7.9 7.8 7.6 7.5 7.3 7.5 7.2 7.2 7.3 6.8 7.9 7.9 8.2 8.0 8.1 8.1 8.2 7.9
6.4 6.0 5.2 4.8 5.0 5.4 4.3 5.7 6.1 6.0 5.5 6.7 7.0 7.0 7.2 7.6 8.2 7.1 8.2 8.1 8.1 8.0 8.0 7.8 7.7 7.7 7.7 7.6 7.7 7.7 7.4 7.1 7.1 7.0 7.0 7.6 7.7 7.8 7.7 7.8 7.9 7.4 7.3 7.2
7.0 5.8 6.0 5.5 5.3 5.2 5.9 6.6 6.1 6.0 6.3 6.2 6.8 7.3 7.6 7.9 8.0 7.0 7.7 8.0 7.8 7.9 7.5 7.4 7.3 7.4 7.6 7.5 6.9 7.2 7.4 7.0 7.0 6.9 6.9 6.6 7.4 7.6 7.6 7.6 7.3 6.4 6.9 6.6
7.2 5.6 6.1 5.8 5.9 5.8 6.6 6.6 6.7 6.1 6.2 7.0 7.4 7.4 7.5 7.9 7.8 5.8 7.5 7.8 7.8 7.6 7.7 7.4 7.2 7.4 7.7 7.4 7.1 6.9 6.9 6.9 6.8 6.7 6.7 6.9 7.0 7.0 7.2 6.9 6.4 6.1 6.4 6.4
6.6 5.5 6.6 6.3 6.1 6.3 6.5 6.7 7.1 6.6 6.5 6.9 7.4 7.9 8.0 7.9 7.3 6.0 7.4 7.5 7.4 7.3 7.5 7.2 7.0 7.2 7.4 7.5 7.3 7.2 7.2 6.8 6.7 6.3 6.2 6.1 6.6 6.6 6.4 6.2 6.2 6.3 6.3 6.2
6.2 5.9 6.4 6.1 6.0 6.5 7.1 6.5 6.7 6.5 6.7 7.1 7.3 7.3 7.5 7.4 7.3 7.1 7.5 7.6 7.8 7.6 7.4 7.1 7.0 6.9 7.1 7.2 7.0 7.2 7.0 6.9 6.7 6.8 6.8 6.6 6.2 6.3 5.8 5.7 6.2 6.2 6.0 5.9
5.5 5.8 6.3 5.9 6.5 6.8 6.7 6.4 5.6 5.6 6.1 7.3 7.5 7.3 7.3 7.5 7.3 6.9 7.3 7.3 7.4 7.5 7.1 7.3 7.0 6.9 7.0 7.0 7.0 6.9 6.8 6.8 6.8 6.7 7.0 6.5 6.1 5.9 5.3 6.2 6.1 5.9 5.9 5.7
5.7 6.2 6.4 6.5 6.5 7.0 6.9 6.5 7.1 7.1 7.6 7.7 7.1 7.3 7.5 7.7 7.5 7.1 7.3 7.6 7.8 7.8 7.4 7.2 7.0 7.0 6.9 7.0 6.9 6.7 6.6 6.6 6.7 6.5 6.5 6.5 6.0 5.3 5.8 5.9 5.9 6.0 5.7 5.9
6.4 6.1 6.6 6.7 6.6 6.5 6.6 6.6 6.6 6.9 7.3 7.1 7.3 7.5 7.6 7.7 7.4 7.2 7.3 7.6 7.6 7.5 7.4 7.1 7.0 7.0 7.0 6.9 6.8 6.6 6.4 6.5 6.5 6.3 6.1 6.6 5.8 6.1 6.0 5.9 5.9 6.0 6.0 6.0
6.4 6.5 6.6 6.8 7.0 6.4 6.5 6.9 7.2 7.2 7.1 7.1 7.2 7.3 7.5 7.5 7.4 7.3 7.2 7.5 7.6 7.4 7.2 7.0 7.1 7.2 7.0 6.8 6.7 6.4 6.5 6.7 6.7 6.3 6.5 6.1 6.1 6.1 6.5 6.0 5.9 5.9 6.0 6.1
6.7 6.7 6.8 6.8 6.8 6.6 6.6 6.7 7.1 7.0 7.3 7.3 7.4 7.5 7.5 7.3 7.3 7.4 7.3 7.4 7.3 7.2 7.3 7.2 7.2 7.1 6.8 6.7 6.5 6.3 6.6 6.6 6.7 6.7 6.2 6.0 6.0 6.3 6.3 6.2 6.1 6.1 6.1 6.0
6.6 6.6 6.6 6.7 6.6 6.5 6.7 6.6 7.1 7.4 7.0 7.0 7.2 6.8 7.2 7.2 7.1 7.0 7.2 7.2 7.2 7.2 7.3 7.2 7.0 7.0 6.8 6.4 6.4 6.5 6.6 6.6 6.6 6.6 6.5 6.1 5.8 5.9 5.9 5.9 5.9 5.9 6.0 5.9
6.8 6.7 6.7 6.7 6.7 6.5 6.4 6.7 7.1 7.2 7.0 6.5 6.9 7.2 6.8 6.9 7.1 7.0 7.0 7.1 7.1 7.1 6.9 6.9 6.9 6.7 6.4 6.3 6.6 6.8 6.7 6.6 6.6 6.4 6.3 6.3 6.2 6.0 5.9 5.9 5.8 5.6 5.6 5.7
6.9 6.7 6.6 6.6 6.6 6.4 6.3 6.6 6.7 6.5 6.4 6.9 7.3 7.4 7.4 7.0 6.9 6.9 6.9 6.8 6.8 6.6 6.8 6.7 6.6 6.5 6.7 6.8 7.0 6.9 6.8 6.8 6.4 6.3 6.3 6.3 6.1 6.0 5.9 5.8 5.7 5.7 5.5 5.2
6.8 6.6 6.7 6.6 6.5 6.5 6.6 6.6 6.6 6.1 6.3 7.1 7.5 7.6 7.9 7.4 7.4 7.3 7.1 6.9 6.8 6.6 6.8 6.7 6.5 6.5 7.2 7.3 7.3 7.1 6.8 6.7 6.4 6.2 6.1 5.9 5.9 5.8 5.7 5.8 5.6 5.3 5.1 5.0
6.6 6.6 6.6 6.6 6.6 6.7 6.8 6.2 6.2 6.3 6.8 7.1 7.4 7.7 7.6 7.5 7.2 6.9 6.8 6.9 6.8 6.7 6.3 6.4 5.8 6.9 7.4 7.6 7.5 7.0 6.7 6.3 6.1 6.0 5.8 5.8 5.7 5.6 5.6 5.4 5.1 5.0 5.0 5.0
6.7 6.8 6.9 6.6 6.7 6.6 6.3 6.2 6.8 7.1 7.2 7.4 7.6 7.5 7.5 7.4 7.3 7.1 7.3 7.0 6.8 6.3 6.4 6.0 6.3 7.3 7.5 7.3 7.1 6.7 6.0 5.8 5.7 5.7 5.7 5.6 5.5 5.3 5.2 5.1 5.0 5.0 5.1 5.3
6.5 6.8 6.5 6.3 6.3 6.5 6.6 6.9 7.2 7.3 7.4 7.6 7.6 7.7 7.7 7.6 7.5 7.2 7.1 6.9 6.5 5.7 5.2 6.0 7.3 7.2 6.9 6.8 6.3 5.8 5.7 5.6 5.6 5.5 5.5 5.4 5.2 5.0 5.0 5.0 5.0 5.2 5.3 5.2
6.1 6.3 6.3 6.3 6.5 6.6 6.9 7.0 7.2 7.5 7.6 7.6 7.5 7.5 7.5 7.5 7.2 7.2 7.1 6.8 6.1 5.6 5.6 6.7 6.6 6.5 6.4 5.7 5.5 5.7 5.5 5.4 5.3 5.2 5.2 5.0 5.0 5.0 5.0 5.2 5.2 5.2 5.1 5.1
6.3 6.1 6.0 6.4 6.6 6.7 6.8 7.0 7.0 7.3 7.2 7.2 7.1 7.0 6.9 6.9 6.9 6.6 6.3 5.8 5.7 5.7 6.4 6.3 6.3 6.3 5.7 5.5 5.7 5.4 5.4 5.3 5.3 5.0 5.1 5.1 5.1 5.1 5.3 5.3 5.2 5.2 5.1 5.1
5.9 5.9 5.8 5.9 6.0 6.2 6.4 6.4 6.5 6.6 6.5 6.5 6.4 6.5 6.8 6.4 6.2 5.9 5.8 5.5 6.0 6.0 6.1 6.1 6.0 6.0 5.8 5.9 5.6 5.3 5.2 5.1 5.1 5.2 5.2 5.3 5.3 5.2 5.2 5.2 5.1 5.0 5.2 5.3
Wind_Speed
23 28 29 28 24 30 20 6 8 14 15 11 10 14 22 22 20 10 10 14 16 13 12 13 13 15 14 11 7 9 10 4 3 9 3 5 7 10 11 3 5 2 1 5
23 28 31 29 29 35 7 7 8 13 16 13 13 18 26 25 22 15 15 11 14 10 12 7 10 6 6 7 5 1 1 3 5 10 6 8 8 11 10 6 3 4 3 3
25 26 31 31 32 37 9 7 9 5 11 12 20 23 21 24 22 17 14 15 13 9 11 9 8 7 3 3 3 4 4 4 9 7 10 4 13 11 10 10 3 4 8 11
33 29 32 32 33 38 9 5 10 10 12 17 19 20 20 24 23 18 16 15 17 11 9 13 8 9 7 4 3 3 2 8 11 14 16 2 10 9 7 11 11 11 10 13
28 34 33 30 30 35 11 9 9 12 8 19 22 22 27 26 24 18 18 13 14 14 10 10 11 12 8 7 7 7 5 5 4 8 10 10 12 14 13 14 13 13 14 13
33 32 32 27 18 24 8 10 10 6 12 23 20 21 22 25 18 18 18 18 15 16 6 13 11 7 1 7 10 9 7 3 2 2 6 7 5 10 16 15 14 10 11 9
26 28 31 32 23 28 6 11 8 6 15 19 24 25 25 23 23 11 12 14 15 10 14 14 12 11 8 7 4 7 5 5 2 1 2 1 7 4 5 5 7 9 8 11
24 26 25 25 21 21 12 6 4 3 7 18 25 28 23 21 17 15 10 7 10 14 11 4 4 2 3 2 3 3 3 4 2 3 4 7 10 1 2 2 5 11 10 10
22 21 23 24 23 16 16 12 4 4 9 17 29 23 20 14 8 1 6 10 6 5 3 2 4 4 6 7 6 1 2 3 3 3 2 4 2 5 3 2 2 8 9 8
22 22 20 23 22 21 13 9 9 4 6 13 20 20 15 10 12 5 11 6 3 3 2 2 2 4 3 5 6 4 2 0 4 3 1 6 6 5 1 2 3 4 5 7
21 22 20 21 22 23 11 13 11 5 5 14 21 14 12 10 14 6 11 6 3 3 2 3 2 2 3 2 6 7 6 6 3 2 2 5 6 5 2 4 5 8 7 7
21 20 22 23 22 20 15 7 11 11 8 4 9 13 14 8 5 7 9 6 10 5 4 1 3 2 2 2 2 6 3 4 3 7 3 5 3 4 5 6 4 5 7 8
21 22 19 17 18 21 22 12 11 6 6 5 6 8 10 10 6 6 4 3 8 6 2 3 2 3 3 3 3 3 4 4 2 2 2 5 5 3 10 10 8 8 8 9
24 20 21 22 22 23 18 9 10 8 5 5 4 2 5 6 4 5 4 5 5 6 5 2 3 3 4 3 1 3 2 7 5 5 3 3 14 13 10 7 10 10 10 15
24 24 19 18 19 21 14 10 10 7 3 4 4 7 6 2 3 5 5 8 8 4 3 2 2 2 3 2 1 1 5 1 3 1 8 3 11 10 10 11 12 11 13 16
18 20 20 20 18 16 5 4 4 6 5 4 3 2 4 5 7 9 8 6 5 3 3 1 3 3 0 3 3 6 8 7 6 4 4 9 12 16 15 13 12 14 14 13
22 22 22 21 21 9 2 3 4 10 3 3 3 4 1 5 7 4 4 3 3 3 3 1 3 2 2 3 2 10 6 5 8 4 3 8 8 9 13 13 13 14 14 12
21 19 18 17 20 12 1 2 8 7 1 4 3 0 3 2 2 2 4 2 3 5 3 1 2 3 2 2 9 9 6 10 8 10 13 13 14 13 12 11 11 13 11 9
24 23 20 8 1 3 3 5 11 2 6 2 2 4 3 3 3 2 2 2 3 2 2 2 3 2 2 6 9 9 5 5 10 10 10 11 13 12 11 12 11 10 6 6
30 18 4 3 1 2 0 1 4 5 2 3 2 1 3 1 2 2 2 2 3 3 1 2 2 2 6 5 7 6 4 10 11 12 9 11 12 12 11 9 8 9 10 10
6 3 3 1 3 1 3 3 3 2 2 2 1 4 5 3 3 3 1 2 0 3 3 4 3 3 5 6 6 5 5 11 7 10 12 11 11 8 7 9 9 8 9 8
5 8 5 2 3 3 5 2 1 1 1 1 2 3 3 2 0 3 2 3 2 2 5 2 3 3 10 8 8 9 10 13 13 14 13 13 11 8 8 9 8 7 7 6
3 5 4 2 4 3 2 4 1 2 0 0 1 3 2 2 3 3 3 3 2 4 1 3 2 7 7 9 10 10 11 11 12 13 12 12 11 10 9 8 5 4 8 8
4 4 5 3 2 2 2 2 2 0 2 2 3 2 2 1 3 2 4 1 2 3 4 3 4 10 8 10 9 11 11 5 10 11 11 9 9 9 8 8 6 6 7 7
5 4 4 3 2 1 0 1 1 3 2 1 2 3 3 3 3 2 4 3 3 4 0 2 6 10 9 10 9 11 6 5 8 9 7 7 8 8 8 7 7 7 4 5
4 5 3 2 1 3 3 4 2 4 3 3 2 2 3 3 2 2 2 4 2 2 3 4 8 10 9 8 10 10 8 6 10 8 8 7 6 6 7 7 5 4 5 3
3 3 3 2 4 3 2 3 3 3 2 2 2 3 4 2 2 2 3 2 2 4 5 5 8 10 8 10 9 7 7 8 9 9 8 7 6 5 4 4 6 4 5 3
Wind_Direction
229 220 211 202 187 172 174 206 206 148 152 181 212 220 216 229 237 199 240 257 234 214 237 192 227 235 182 188 220 197 234 320 260 226 66 341 319 285 217 168 275 177 42 291
216 221 213 200 186 176 172 190 185 159 166 199 202 213 222 228 232 212 211 237 247 199 235 208 220 206 26 77 182 280 100 218 268 286 195 212 244 252 253 274 72 251 179 265
212 224 215 196 188 183 202 182 179 180 213 217 199 201 213 219 233 240 204 224 229 220 223 195 208 192 121 124 92 49 333 249 262 240 257 341 200 242 240 225 150 242 262 269
208 222 212 201 189 184 202 218 203 178 191 207 202 202 213 212 215 222 238 210 216 206 211 195 219 212 118 143 126 161 232 245 260 270 279 288 301 294 243 243 228 230 250 264
201 209 202 185 184 184 213 211 199 166 186 193 210 213 212 207 206 198 230 214 196 199 194 199 197 213 161 180 166 196 193 249 285 291 293 289 273 275 275 273 276 256 264 272
193 201 190 181 184 180 206 230 269 176 190 183 202 216 207 217 204 200 219 210 198 217 151 73 63 68 81 200 166 192 176 235 142 250 346 348 322 244 249 261 264 263 268 281
193 188 182 191 191 201 223 224 239 215 183 189 200 204 211 208 214 182 191 216 228 109 113 90 79 77 81 94 64 194 181 216 84 151 311 256 239 27 354 344 316 309 331 23
188 185 180 179 185 220 223 214 283 202 211 187 192 204 204 202 215 184 157 28 110 148 111 108 106 90 56 190 143 160 207 136 135 148 216 284 307 141 22 46 46 41 35 18
179 172 176 181 185 229 229 239 312 265 195 206 193 193 196 201 127 52 116 88 126 129 105 115 178 174 218 168 140 146 116 161 165 175 224 218 93 97 53 358 165 47 28 10
170 174 176 187 193 228 224 232 211 249 213 198 194 198 197 149 132 202 132 136 111 345 94 135 168 203 230 147 163 167 100 256 177 144 234 293 83 105 82 223 73 64 12 1
176 188 175 184 204 225 197 221 240 264 270 174 193 196 181 172 159 180 133 138 160 142 130 145 160 112 210 206 183 159 168 157 185 120 149 267 131 125 135 56 10 13 4 357
183 193 184 185 203 198 187 242 238 240 241 88 86 61 42 36 52 133 170 158 158 162 151 140 77 112 20 46 192 181 188 182 178 174 198 141 119 46 55 44 15 3 357 349
190 196 197 206 191 193 190 212 228 263 164 105 100 71 51 44 29 28 138 216 170 160 85 125 117 150 169 143 225 119 196 84 173 65 181 166 149 81 69 39 12 349 356 4
188 184 186 188 181 193 195 229 252 296 71 96 76 100 39 344 48 60 10 125 50 98 103 107 130 135 202 191 258 134 23 145 201 209 268 15 64 55 44 24 37 25 33 44
177 176 173 185 186 177 184 221 267 293 334 116 102 102 26 71 135 142 117 128 130 124 110 100 149 95 102 44 21 160 174 184 160 145 74 19 72 60 51 62 55 48 68 63
163 162 167 174 177 153 157 234 220 317 41 104 108 82 77 105 140 147 148 158 169 157 91 116 78 50 175 131 171 90 93 76 52 73 47 79 94 80 67 74 70 67 74 76
157 155 156 160 161 161 241 338 328 330 314 95 104 113 89 100 93 40 111 102 51 99 93 70 143 120 113 147 163 124 107 102 83 52 97 80 125 102 88 92 95 95 95 97
140 137 132 118 96 81 22 333 316 307 6 99 112 203 120 287 89 96 339 72 90 33 89 83 70 63 354 128 112 106 116 112 99 76 69 102 105 99 103 113 114 104 95 95
132 128 129 128 46 179 93 257 285 193 54 80 114 141 146 109 61 57 57 65 78 44 80 119 93 144 152 109 137 120 111 120 113 95 94 100 108 115 119 115 106 99 123 137
136 139 145 104 50 343 147 128 25 19 61 24 87 125 125 90 134 88 97 7 153 132 123 88 59 92 102 94 93 121 133 137 127 119 116 126 127 131 132 122 128 79 60 63
155 89 63 80 202 134 27 70 81 234 232 29 20 130 124 355 142 132 340 121 86 138 141 174 160 198 165 158 139 137 161 150 119 123 140 139 121 106 106 93 82 72 75 70
86 107 108 47 44 46 70 57 123 169 308 354 61 67 91 61 232 101 150 99 133 145 140 135 200 114 139 146 142 132 123 130 128 119 116 120 127 107 96 97 93 92 96 80
70 59 67 26 13 45 222 186 178 156 336 31 138 90 79 97 77 74 107 119 126 113 136 209 69 130 152 149 124 116 123 121 121 115 104 96 81 77 94 92 68 126 78 64
62 59 69 50 146 74 30 352 60 64 292 68 97 67 89 131 74 106 97 37 152 156 205 207 143 152 147 132 133 134 120 84 114 114 112 114 110 98 87 85 82 63 62 63
59 39 71 83 123 64 271 303 64 358 320 276 122 63 71 54 96 63 116 131 188 221 226 109 142 144 135 141 139 112 105 87 112 113 103 104 118 116 101 78 78 83 71 61
50 43 74 346 78 30 27 17 35 357 330 308 49 92 71 67 100 132 182 182 192 103 90 117 136 139 140 144 125 137 148 142 107 116 119 103 95 112 106 101 89 125 99 69
52 47 6 14 68 50 30 9 351 310 3 49 331 63 48 132 102 93 20 36 66 108 107 119 131 139 141 120 105 104 108 115 119 126 115 107 102 131 125 95 58 33 105 94